GW1838 Weather Reports


time (UTC)temp
C
wind
direction
speed
KPH
gust
KPH
rain 1hr
cm
rain 24hr
cm
rain mn
cm
humidity
%
barometer
mb
20260510144808 14 124 3.2 8.0 0.00 0.00 0.00 93 1012.7
20260510143307 13 101 3.2 4.8 0.00 0.00 0.00 95 1012.6
20260510141807 13 89 1.6 4.8 0.00 0.00 0.00 96 1012.7
20260510140307 13 339 8.0 9.7 0.00 0.00 0.00 96 1012.8
20260510135307 12 70 3.2 4.8 0.00 0.00 0.00 96 1012.6
20260510134308 12 1 4.8 9.7 0.00 0.00 0.00 96 1012.5
20260510133808 12 345 4.8 8.0 0.00 0.00 0.00 96 1012.5
20260510133307 12 324 1.6 4.8 0.00 0.00 0.00 96 1012.5
20260510131807 12 331 1.6 4.8 0.00 0.00 0.00 96 1012.5
20260510131307 12 346 3.2 4.8 0.00 0.00 0.00 96 1012.5
20260510125807 11 324 3.2 4.8 0.00 0.00 0.00 96 1012.5
20260510125307 11 11 3.2 4.8 0.00 0.00 0.00 96 1012.4
20260510124807 11 119 1.6 4.8 0.00 0.00 0.00 96 1012.5
20260510124307 12 300 1.6 4.8 0.00 0.00 0.00 96 1012.2
20260510123308 11 52 3.2 8.0 0.00 0.00 0.00 96 1011.9
20260510122807 11 46 3.2 4.8 0.00 0.00 0.00 96 1011.9
20260510122307 11 34 1.6 4.8 0.00 0.00 0.00 96 1011.8
20260510120807 11 5 8.0 14.5 0.00 0.00 0.00 96 1011.6
20260510120307 11 16 6.4 14.5 0.00 0.00 0.00 96 1011.7
20260510115808 11 47 8.0 12.9 0.00 0.00 0.00 96 1011.6
20260510112308 12 67 3.2 4.8 0.00 0.00 0.00 96 1011.5
20260510111808 12 345 3.2 4.8 0.00 0.00 0.00 96 1011.3
20260510111307 11 346 4.8 8.0 0.00 0.00 0.00 96 1011.3
20260510110808 11 24 4.8 9.7 0.00 0.00 0.00 96 1011.2
20260510105807 12 338 0.0 3.2 0.00 0.00 0.00 96 1010.9
20260510105307 11 338 1.6 8.0 0.00 0.00 0.00 96 1011.0
20260510104307 11 18 3.2 4.8 0.00 0.00 0.00 96 1011.1
20260510101808 11 141 1.6 3.2 0.00 0.00 0.00 96 1010.7
20260510101307 11 141 0.0 1.6 0.00 0.00 0.00 96 1010.6
20260510100808 11 141 0.0 1.6 0.00 0.00 0.00 95 1010.5
20260510100307 11 141 1.6 3.2 0.00 0.00 0.00 96 1010.4
20260510095307 11 141 0.0 0.0 0.00 0.00 0.00 96 1010.4
20260510094808 11 141 0.0 1.6 0.00 0.00 0.00 96 1010.4
20260510093807 11 121 1.6 4.8 0.00 0.00 0.00 96 1010.1
20260510093307 11 121 1.6 1.6 0.00 0.00 0.00 96 1009.9
20260510092808 11 121 0.0 3.2 0.00 0.00 0.00 96 1009.8
20260510092307 11 121 0.0 3.2 0.00 0.00 0.00 96 1009.8
20260510090307 11 126 1.6 4.8 0.00 0.00 0.00 96 1009.9
20260510085307 11 126 3.2 4.8 0.00 0.00 0.00 96 1009.9
20260510084807 11 126 1.6 4.8 0.00 0.00 0.00 96 1009.8
20260510084308 11 126 3.2 4.8 0.00 0.00 0.00 96 1009.9
20260510083807 11 126 3.2 4.8 0.00 0.00 0.00 96 1009.9
20260510081807 11 146 1.6 3.2 0.00 0.00 0.00 95 1009.7
20260510080308 11 146 1.6 3.2 0.00 0.00 0.00 95 1009.7
20260510075808 11 146 1.6 3.2 0.00 0.00 0.00 95 1009.6
20260510074807 11 146 1.6 3.2 0.00 0.00 0.00 95 1009.6
20260510073307 11 146 1.6 3.2 0.00 0.00 0.00 95 1009.7
20260510072809 11 146 1.6 4.8 0.00 0.00 0.00 95 1009.7
20260510072307 11 152 3.2 4.8 0.00 0.00 0.00 95 1009.7
20260510071807 11 146 3.2 4.8 0.00 0.00 0.00 95 1009.7
20260510071307 11 139 3.2 4.8 0.00 0.00 0.00 95 1009.8
20260510065307 11 139 1.6 4.8 0.00 0.00 0.00 95 1009.8
20260510062807 11 139 1.6 3.2 0.00 0.00 0.00 95 1009.8
20260510062307 11 139 0.0 1.6 0.00 0.00 0.00 95 1009.8
20260510061807 11 139 0.0 1.6 0.00 0.00 0.00 95 1009.9
20260510060807 11 139 3.2 4.8 0.00 0.00 0.00 95 1009.7
20260510055307 11 128 1.6 3.2 0.00 0.00 0.00 95 1009.9
20260510054807 11 127 1.6 4.8 0.00 0.00 0.00 95 1010.0
20260510054307 11 127 3.2 4.8 0.00 0.00 0.00 95 1010.0
20260510052807 11 127 1.6 3.2 0.00 0.00 0.00 95 1010.1
20260510052307 11 107 1.6 4.8 0.00 0.00 0.00 95 1010.2
20260510050307 11 96 0.0 1.6 0.00 0.00 0.00 95 1010.2
20260510044806 11 96 1.6 3.2 0.00 0.00 0.00 94 1010.3
20260510043807 11 68 0.0 1.6 0.00 0.00 0.00 94 1010.3
20260510043307 11 68 0.0 1.6 0.00 0.00 0.00 94 1010.3
20260510042807 11 68 0.0 1.6 0.00 0.00 0.00 94 1010.3
20260510042307 11 68 0.0 1.6 0.00 0.00 0.00 94 1010.4
20260510040839 11 69 1.6 3.2 0.00 0.00 0.00 94 1010.2
20260510040307 11 66 0.0 0.0 0.00 0.00 0.00 94 1010.2
20260510035807 11 66 0.0 1.6 0.00 0.00 0.00 94 1010.2
20260510034807 11 66 0.0 1.6 0.00 0.00 0.00 94 1010.2
20260510032307 11 66 0.0 3.2 0.00 0.00 0.00 94 1010.0
20260510031807 11 66 1.6 3.2 0.00 0.00 0.00 94 1009.8
20260510022807 12 66 1.6 3.2 0.00 0.00 0.00 93 1009.9
20260510022307 12 66 1.6 3.2 0.00 0.00 0.00 93 1010.0
20260510020307 12 57 3.2 4.8 0.00 0.00 0.00 93 1010.0
20260510015308 12 57 3.2 4.8 0.00 0.00 0.00 93 1009.9
20260510013307 12 58 3.2 4.8 0.00 0.00 0.00 92 1009.8
20260510011807 12 65 3.2 4.8 0.00 0.00 0.00 92 1009.8
20260510010806 12 51 1.6 4.8 0.00 0.00 0.00 92 1009.7
20260510005807 12 18 3.2 4.8 0.00 0.00 0.00 92 1009.7
20260510004807 12 44 3.2 4.8 0.00 0.00 0.00 91 1009.7
20260510003807 12 32 1.6 4.8 0.00 0.00 0.00 91 1009.6
20260510002307 12 55 1.6 4.8 0.00 0.00 0.00 91 1009.5
20260510001807 12 57 1.6 4.8 0.00 0.00 0.00 91 1009.5
20260509235307 12 58 4.8 4.8 0.00 0.00 0.00 90 1009.4
20260509234807 12 62 3.2 9.7 0.00 0.00 0.00 90 1009.3
20260509234307 12 49 3.2 8.0 0.00 0.00 0.00 89 1009.3
20260509233807 13 67 4.8 11.3 0.00 0.00 0.00 89 1009.2
20260509232807 13 78 4.8 4.8 0.00 0.00 0.00 87 1009.0
20260509230307 16 29 8.0 12.9 0.00 0.00 0.00 87 1009.2
20260509225807 16 25 9.7 19.3 0.00 0.00 0.00 87 1009.2
20260509225306 16 9 8.0 19.3 0.00 0.00 0.00 87 1009.2
20260509224307 16 17 8.0 11.3 0.00 0.00 0.00 87 1009.3
20260509223306 16 348 4.8 8.0 0.00 0.00 0.00 88 1009.4
20260509222807 16 343 1.6 4.8 0.00 0.00 0.00 89 1009.2
20260509214307 13 181 8.0 12.9 0.00 0.00 0.00 91 1008.6
20260509213806 13 176 6.4 11.3 0.00 0.00 0.00 91 1008.5
20260509212306 13 184 8.0 14.5 0.00 0.00 0.00 90 1008.7
20260509211806 13 172 9.7 16.1 0.00 0.00 0.00 90 1008.8
20260509205308 13 197 8.0 19.3 0.00 0.00 0.00 90 1009.0
20260509204806 13 185 9.7 16.1 0.00 0.00 0.00 90 1009.0
20260509203806 13 181 11.3 19.3 0.00 0.00 0.00 91 1009.1
20260509200807 13 174 14.5 19.3 0.00 0.00 0.00 92 1009.1
20260509200307 13 161 9.7 19.3 0.00 0.00 0.00 92 1009.2
20260509195807 13 173 8.0 14.5 0.00 0.00 0.00 92 1009.1
20260509195307 12 186 9.7 19.3 0.00 0.00 0.00 93 1009.2
20260509194806 12 182 12.9 19.3 0.00 0.00 0.00 92 1009.2
20260509194307 12 171 14.5 22.5 0.00 0.00 0.00 92 1009.2
20260509193807 12 189 9.7 24.1 0.00 0.00 0.00 92 1009.4
20260509193306 12 186 16.1 25.7 0.00 0.00 0.00 92 1009.6
20260509192806 12 179 19.3 33.8 0.00 0.00 0.00 92 1009.8
20260509191308 12 184 20.9 32.2 0.00 0.00 0.00 91 1010.1
20260509184806 13 174 20.9 35.4 0.00 0.00 0.00 90 1010.4
20260509183807 13 186 22.5 37.0 0.00 0.00 0.00 89 1010.4
20260509183307 13 182 22.5 37.0 0.00 0.00 0.00 89 1010.4
20260509182307 13 187 22.5 33.8 0.00 0.00 0.00 86 1010.4
20260509181306 14 181 19.3 33.8 0.00 0.00 0.00 85 1010.5
20260509175806 15 177 22.5 33.8 0.00 0.00 0.00 84 1010.8
20260509174807 14 190 16.1 24.1 0.00 0.00 0.00 82 1010.8
20260509173807 14 191 16.1 27.4 0.00 0.00 0.00 82 1010.7
20260509172806 14 192 14.5 22.5 0.00 0.00 0.00 82 1010.6
20260509171306 14 185 16.1 25.7 0.00 0.00 0.00 82 1010.8
20260509170806 14 189 16.1 25.7 0.00 0.00 0.00 82 1010.8
20260509170307 14 181 16.1 27.4 0.00 0.00 0.00 81 1010.8
20260509164307 15 192 16.1 25.7 0.00 0.00 0.00 80 1010.7
20260509163307 15 190 16.1 25.7 0.00 0.00 0.00 80 1010.9
20260509162806 15 195 14.5 22.5 0.00 0.00 0.00 80 1011.0
20260509160806 15 189 20.9 32.2 0.00 0.00 0.00 81 1011.5
20260509160306 15 208 16.1 27.4 0.00 0.00 0.00 80 1011.6
20260509155807 15 192 14.5 32.2 0.00 0.00 0.00 81 1011.7
20260509155306 15 187 14.5 33.8 0.00 0.00 0.00 80 1011.8
20260509154806 15 191 19.3 27.4 0.00 0.00 0.00 80 1011.8
20260509154306 15 202 16.1 32.2 0.00 0.00 0.00 80 1011.9
20260509151806 14 193 17.7 25.7 0.00 0.00 0.00 82 1012.0
20260509145806 14 199 14.5 24.1 0.00 0.00 0.00 83 1012.0